EW3533 Weather Reports


Display with metric or nautical units.
time (UTC)temp
F
wind
direction
speed
MPH
gust
MPH
rain 1hr
in
rain 24hr
in
rain mn
in
humidity
%
barometer
mb
20260502163103 44 315 5.0 10.0 0.00 0.00 0.00 57 1017.9
20260502161600 44 278 2.0 9.0 0.00 0.00 0.00 56 1018.0
20260502151603 43 321 4.0 11.0 0.00 0.00 0.00 57 1018.1
20260502123025 37 281 2.0 8.0 0.00 0.00 0.00 83 1018.5
20260502121527 36 288 2.0 8.0 0.00 0.00 0.00 84 1018.6
20260502114520 35 284 1.0 8.0 0.00 0.00 0.00 84 1018.5
20260502113019 34 276 1.0 8.0 0.00 0.00 0.00 84 1018.3
20260502111522 34 277 3.0 7.0 0.00 0.00 0.00 85 1018.3
20260502110015 33 279 1.0 5.0 0.00 0.00 0.00 84 1018.2
20260502104513 34 280 2.0 5.0 0.00 0.00 0.00 84 1018.1
20260502103011 34 261 1.0 3.0 0.00 0.00 0.00 84 1017.9
20260502101510 34 261 0.0 2.0 0.00 0.00 0.00 83 1017.9
20260502091502 35 178 0.0 2.0 0.00 0.00 0.00 84 1017.4
20260502080103 36 124 0.0 1.0 0.00 0.00 0.00 88 1017.3
20260502070045 36 119 0.0 1.0 0.00 0.00 0.00 86 1017.4
20260502064545 36 119 0.0 0.0 0.00 0.00 0.00 85 1017.5
20260502063043 37 119 0.0 0.0 0.00 0.00 0.00 85 1017.5
20260502061542 37 119 0.0 2.0 0.00 0.00 0.00 85 1017.6
20260502060040 37 119 1.0 3.0 0.00 0.00 0.00 84 1017.7
20260502054541 37 119 1.0 3.0 0.00 0.00 0.00 84 1017.7
20260502053138 37 119 1.0 3.0 0.00 0.00 0.00 84 1017.7
20260502051546 37 119 1.0 3.0 0.00 0.00 0.00 85 1017.7
20260502050035 37 119 0.0 3.0 0.00 0.00 0.00 85 1017.6
20260502044634 37 118 0.0 4.0 0.00 0.00 0.00 85 1017.5
20260502043033 37 127 3.0 7.0 0.00 0.00 0.00 84 1017.4
20260502041536 37 122 2.0 6.0 0.00 0.00 0.00 84 1017.4
20260502040030 38 122 3.0 8.0 0.00 0.00 0.00 83 1017.3
20260502034531 38 119 2.0 7.0 0.00 0.00 0.00 82 1017.3
20260502033026 38 86 1.0 7.0 0.00 0.00 0.00 81 1017.2
20260502031525 39 80 2.0 6.0 0.00 0.00 0.00 78 1017.1
20260502030025 39 51 2.0 4.0 0.00 0.00 0.00 78 1017.2
20260502024523 39 51 0.0 4.0 0.00 0.00 0.00 78 1017.1
20260502023023 40 67 1.0 4.0 0.00 0.00 0.00 76 1017.1
20260502021520 40 65 3.0 5.0 0.00 0.00 0.00 76 1017.0
20260502020022 40 60 0.0 4.0 0.00 0.00 0.00 75 1016.8
20260502014518 41 51 5.0 9.0 0.00 0.00 0.00 73 1016.6
20260502013015 42 67 5.0 14.0 0.00 0.00 0.00 70 1016.5
20260502011535 43 308 0.0 5.0 0.00 0.00 0.00 59 1016.2
20260502010013 43 306 1.0 5.0 0.00 0.00 0.00 57 1016.1
20260502004511 43 281 2.0 6.0 0.00 0.00 0.00 56 1016.0
20260502003009 43 297 1.0 7.0 0.00 0.00 0.00 57 1015.8
20260502001510 44 283 0.0 5.0 0.00 0.00 0.00 57 1015.8
20260502000010 44 333 4.0 12.0 0.00 0.00 0.00 56 1015.6
20260501234506 44 13 4.0 8.0 0.00 0.00 0.00 57 1015.5
20260501233007 44 329 5.0 10.0 0.00 0.00 0.00 57 1015.5
20260501231505 44 351 5.0 9.0 0.00 0.00 0.00 59 1015.5
20260501230002 44 333 6.0 11.0 0.00 0.00 0.00 60 1015.3
20260501224502 44 5 5.0 15.0 0.00 0.00 0.00 60 1015.4
20260501223125 44 342 6.0 15.0 0.00 0.00 0.00 60 1015.4
20260501223001 44 327 7.0 15.0 0.00 0.00 0.00 59 1015.4
20260501221617 45 336 3.0 10.0 0.00 0.00 0.00 59 1015.1
20260501220057 45 225 5.0 8.0 0.00 0.00 0.00 57 1014.8
20260501214556 46 221 1.0 7.0 0.00 0.00 0.00 58 1014.9
20260501213056 46 263 0.0 3.0 0.00 0.00 0.00 56 1014.8
20260501211558 46 317 0.0 3.0 0.00 0.00 0.00 55 1014.8
20260501210053 45 234 0.0 5.0 0.00 0.00 0.00 57 1014.8
20260501204553 45 261 0.0 4.0 0.00 0.00 0.00 57 1014.8
20260501203053 45 327 1.0 4.0 0.00 0.00 0.00 56 1014.9
20260501201552 45 306 1.0 8.0 0.00 0.00 0.00 55 1014.8
20260501200051 46 25 0.0 9.0 0.00 0.00 0.00 55 1014.8
20260501194551 45 339 4.0 8.0 0.00 0.00 0.00 59 1014.7
20260501193048 44 339 3.0 6.0 0.00 0.00 0.00 57 1014.9
20260501191547 44 360 8.0 11.0 0.00 0.00 0.00 59 1014.8
20260501190058 44 355 5.0 10.0 0.00 0.00 0.00 58 1014.8
20260501184546 44 5 4.0 10.0 0.00 0.00 0.00 61 1014.7
20260501183044 44 10 4.0 11.0 0.00 0.00 0.00 62 1014.6
20260501181543 44 28 6.0 10.0 0.00 0.00 0.00 63 1014.6
20260501180043 44 22 5.0 12.0 0.00 0.00 0.00 65 1014.7
20260501174543 44 36 6.0 12.0 0.00 0.00 0.00 66 1014.8
20260501173042 44 28 3.0 12.0 0.00 0.00 0.00 64 1014.7
20260501171541 45 347 4.0 12.0 0.00 0.00 0.00 62 1014.7